KF0ZH Weather Reports


Display with metric or nautical units.
time (UTC)temp
F
wind
direction
speed
MPH
gust
MPH
rain 1hr
in
rain 24hr
in
rain mn
in
humidity
%
barometer
mb
20240303165805 60 164 8.0 16.0 0.00 0.00 0.00 74 993.4
20240303165306 60 146 8.0 17.0 0.00 0.00 0.00 75 993.7
20240303164805 60 97 4.0 18.0 0.00 0.00 0.00 75 993.9
20240303164306 59 216 5.0 10.0 0.00 0.00 0.00 75 993.9
20240303163805 59 161 8.0 12.0 0.00 0.00 0.00 76 994.0
20240303163305 58 135 7.0 18.0 0.00 0.00 0.00 77 994.1
20240303162805 58 139 9.0 19.0 0.00 0.00 0.00 78 994.3
20240303162305 57 123 4.0 17.0 0.00 0.00 0.00 78 994.4
20240303161805 57 153 12.0 19.0 0.00 0.00 0.00 79 994.5
20240303161306 57 192 8.0 18.0 0.00 0.00 0.00 79 994.7
20240303160805 57 147 7.0 14.0 0.00 0.00 0.00 80 994.8
20240303160305 56 154 10.0 16.0 0.00 0.00 0.00 80 994.9
20240303155805 56 127 6.0 14.0 0.00 0.00 0.00 81 994.8
20240303155307 55 171 11.0 18.0 0.00 0.00 0.00 81 994.8
20240303154805 55 187 7.0 19.0 0.00 0.00 0.00 82 994.9
20240303154305 55 144 6.0 18.0 0.00 0.00 0.00 83 994.8
20240303153805 54 135 0.0 12.0 0.00 0.00 0.00 83 994.9
20240303153305 54 140 8.0 9.0 0.00 0.00 0.00 83 995.0
20240303152805 54 178 11.0 14.0 0.00 0.00 0.00 84 995.0
20240303152305 53 111 6.0 8.0 0.00 0.00 0.00 86 995.1
20240303151805 52 127 5.0 10.0 0.00 0.00 0.00 87 995.3
20240303151305 52 87 8.0 13.0 0.00 0.00 0.00 87 995.5
20240303150805 52 108 5.0 9.0 0.00 0.00 0.00 88 995.6
20240303150305 51 111 6.0 10.0 0.00 0.00 0.00 88 995.8
20240303145805 51 70 5.0 11.0 0.00 0.00 0.00 88 995.9
20240303145306 51 118 5.0 10.0 0.00 0.00 0.00 89 996.0
20240303144805 50 116 7.0 11.0 0.00 0.00 0.00 89 996.1
20240303144305 50 135 0.0 10.0 0.00 0.00 0.00 90 996.1
20240303143805 50 133 6.0 11.0 0.00 0.00 0.00 90 996.2
20240303143305 49 63 3.0 12.0 0.00 0.00 0.00 91 996.3
20240303142805 49 98 9.0 15.0 0.00 0.00 0.00 91 996.4
20240303142306 49 129 10.0 10.0 0.00 0.00 0.00 91 996.4
20240303142106 48 102 6.0 12.0 0.00 0.00 0.00 92 996.6
20240303141805 48 102 6.0 12.0 0.00 0.00 0.00 92 996.6
20240303141512 48 142 5.0 10.0 0.00 0.00 0.00 92 996.6
20240303141305 48 142 5.0 10.0 0.00 0.00 0.00 92 996.6
20240303140805 48 94 0.0 10.0 0.00 0.00 0.00 92 996.7
20240303140305 48 123 6.0 9.0 0.00 0.00 0.00 93 996.9
20240303135805 47 123 6.0 9.0 0.00 0.00 0.00 93 996.8
20240303135409 47 136 5.0 14.0 0.00 0.00 0.00 93 997.0
20240303135306 47 136 5.0 14.0 0.00 0.00 0.00 93 997.0
20240303135121 47 84 4.0 11.0 0.00 0.00 0.00 94 997.0
20240303134805 47 84 4.0 11.0 0.00 0.00 0.00 94 997.0
20240303134305 46 101 3.0 11.0 0.00 0.00 0.00 94 997.1
20240303134155 46 125 5.0 10.0 0.00 0.00 0.00 95 997.3
20240303133805 46 125 5.0 10.0 0.00 0.00 0.00 95 997.3
20240303133604 46 130 4.0 7.0 0.00 0.00 0.00 96 997.3
20240303133305 46 130 4.0 7.0 0.00 0.00 0.00 96 997.3
20240303133035 45 106 4.0 12.0 0.00 0.00 0.00 96 997.3
20240303132805 45 106 4.0 12.0 0.00 0.00 0.00 96 997.3
20240303132306 45 142 3.0 8.0 0.00 0.00 0.00 96 997.5
20240303131903 45 94 0.0 7.0 0.00 0.00 0.00 97 997.5
20240303131805 45 94 0.0 7.0 0.00 0.00 0.00 97 997.5
20240303131305 44 60 0.0 8.0 0.00 0.00 0.00 96 997.6
20240303131126 44 94 5.0 9.0 0.00 0.00 0.00 97 997.6
20240303130805 44 94 5.0 9.0 0.00 0.00 0.00 97 997.6
20240303130525 44 104 3.0 7.0 0.00 0.00 0.00 96 997.7
20240303130305 44 104 3.0 7.0 0.00 0.00 0.00 96 997.7
20240303125805 45 108 4.0 7.0 0.00 0.00 0.00 96 997.8
20240303125306 45 59 5.0 7.0 0.00 0.00 0.00 95 997.8
20240303124805 45 137 4.0 8.0 0.00 0.00 0.00 96 997.9
20240303124443 44 108 0.0 6.0 0.00 0.00 0.00 95 997.9
20240303124305 44 108 0.0 6.0 0.00 0.00 0.00 95 997.9
20240303124154 45 130 5.0 8.0 0.00 0.00 0.00 95 998.0
20240303123805 45 130 5.0 8.0 0.00 0.00 0.00 95 998.0
20240303123305 45 112 4.0 6.0 0.00 0.00 0.00 95 998.1
20240303123027 45 130 4.0 7.0 0.00 0.00 0.00 95 998.2
20240303122805 45 130 4.0 7.0 0.00 0.00 0.00 95 998.2
20240303122305 45 71 7.0 7.0 0.00 0.00 0.00 95 998.2
20240303122148 45 97 7.0 8.0 0.00 0.00 0.00 94 998.3
20240303121805 45 97 7.0 8.0 0.00 0.00 0.00 94 998.3
20240303121446 45 87 3.0 9.0 0.00 0.00 0.00 94 998.2
20240303121305 45 87 3.0 9.0 0.00 0.00 0.00 94 998.2
20240303121154 45 75 7.0 9.0 0.00 0.00 0.00 93 998.3
20240303120805 45 75 7.0 9.0 0.00 0.00 0.00 93 998.3
20240303120604 45 108 8.0 9.0 0.00 0.00 0.00 93 998.4
20240303120305 45 108 8.0 9.0 0.00 0.00 0.00 93 998.4
20240303115805 45 91 2.0 8.0 0.00 0.00 0.00 92 998.5
20240303115602 45 142 7.0 10.0 0.00 0.00 0.00 92 998.5
20240303115306 45 142 7.0 10.0 0.00 0.00 0.00 92 998.5
20240303114805 45 99 5.0 10.0 0.00 0.00 0.00 92 998.6
20240303114305 46 109 6.0 9.0 0.00 0.00 0.00 91 998.7
20240303113805 46 94 6.0 11.0 0.00 0.00 0.00 91 998.7
20240303113436 46 90 7.0 13.0 0.00 0.00 0.00 91 998.8
20240303113305 46 90 7.0 13.0 0.00 0.00 0.00 91 998.8
20240303113016 46 105 0.0 10.0 0.00 0.00 0.00 90 999.0
20240303112805 46 105 0.0 10.0 0.00 0.00 0.00 90 999.0
20240303112305 46 102 5.0 6.0 0.00 0.00 0.00 91 998.9
20240303111805 46 122 5.0 6.0 0.00 0.00 0.00 90 999.2
20240303111305 46 30 2.0 7.0 0.00 0.00 0.00 89 999.2
20240303111154 47 70 5.0 8.0 0.00 0.00 0.00 88 999.1
20240303110805 47 70 5.0 8.0 0.00 0.00 0.00 88 999.1
20240303110435 47 109 6.0 11.0 0.00 0.00 0.00 88 999.1
20240303110305 47 109 6.0 11.0 0.00 0.00 0.00 88 999.1
20240303105840 47 129 5.0 8.0 0.00 0.00 0.00 88 999.2
20240303105806 47 129 5.0 8.0 0.00 0.00 0.00 88 999.2
20240303105306 48 57 4.0 9.0 0.00 0.00 0.00 87 999.4
20240303105055 47 54 2.0 9.0 0.00 0.00 0.00 87 999.3
20240303104805 47 54 2.0 9.0 0.00 0.00 0.00 87 999.3
20240303104305 48 133 3.0 9.0 0.00 0.00 0.00 87 999.3
20240303103805 48 82 4.0 7.0 0.00 0.00 0.00 85 999.5
20240303103306 49 132 5.0 8.0 0.00 0.00 0.00 85 999.5
20240303102937 49 99 1.0 6.0 0.00 0.00 0.00 85 999.4
20240303102805 49 99 1.0 6.0 0.00 0.00 0.00 85 999.4
20240303102604 49 105 5.0 6.0 0.00 0.00 0.00 85 999.5
20240303102306 49 105 5.0 6.0 0.00 0.00 0.00 85 999.5
20240303101805 49 130 6.0 8.0 0.00 0.00 0.00 85 999.6
20240303101602 48 99 5.0 8.0 0.00 0.00 0.00 85 999.6
20240303101305 48 99 5.0 8.0 0.00 0.00 0.00 85 999.6
20240303101043 48 94 3.0 8.0 0.00 0.00 0.00 86 999.7
20240303100805 48 94 3.0 8.0 0.00 0.00 0.00 86 999.7
20240303100428 48 97 4.0 8.0 0.00 0.00 0.00 86 999.8
20240303100305 48 97 4.0 8.0 0.00 0.00 0.00 86 999.8
20240303100015 48 118 3.0 10.0 0.00 0.00 0.00 85 999.7
20240303095805 48 118 3.0 10.0 0.00 0.00 0.00 85 999.7
20240303095306 48 78 5.0 9.0 0.00 0.00 0.00 86 999.7
20240303094805 48 116 2.0 7.0 0.00 0.00 0.00 85 999.9
20240303094305 48 90 5.0 12.0 0.00 0.00 0.00 85 999.9
20240303093805 48 130 5.0 10.0 0.00 0.00 0.00 85 1000.1
20240303093305 48 108 0.0 6.0 0.00 0.00 0.00 85 1000.2
20240303092805 48 133 3.0 6.0 0.00 0.00 0.00 84 1000.3
20240303092541 48 105 0.0 7.0 0.00 0.00 0.00 84 1000.4
20240303092306 48 105 0.0 7.0 0.00 0.00 0.00 84 1000.4
20240303092120 48 101 0.0 5.0 0.00 0.00 0.00 84 1000.3
20240303091805 48 101 0.0 5.0 0.00 0.00 0.00 84 1000.3
20240303091305 48 94 3.0 3.0 0.00 0.00 0.00 83 1000.4
20240303090805 48 88 2.0 6.0 0.00 0.00 0.00 83 1000.5
20240303090608 48 39 0.0 2.0 0.00 0.00 0.00 83 1000.8
20240303090305 48 39 0.0 2.0 0.00 0.00 0.00 83 1000.8
20240303085805 48 88 0.0 0.0 0.00 0.00 0.00 82 1000.9
20240303085306 48 88 2.0 5.0 0.00 0.00 0.00 82 1000.9
20240303084805 49 118 3.0 6.0 0.00 0.00 0.00 82 1001.0
20240303084527 49 119 4.0 9.0 0.00 0.00 0.00 82 1001.0
20240303084305 49 119 4.0 9.0 0.00 0.00 0.00 82 1001.0
20240303083805 49 88 4.0 6.0 0.00 0.00 0.00 81 1001.0
20240303083305 49 102 0.0 6.0 0.00 0.00 0.00 81 1001.2
20240303082805 49 106 7.0 7.0 0.00 0.00 0.00 81 1001.3
20240303082306 49 59 0.0 4.0 0.00 0.00 0.00 81 1001.3
20240303082101 49 135 5.0 6.0 0.00 0.00 0.00 81 1001.4
20240303081805 49 135 5.0 6.0 0.00 0.00 0.00 81 1001.4
20240303081457 49 150 0.0 0.0 0.00 0.00 0.00 81 1001.5
20240303081305 49 150 0.0 0.0 0.00 0.00 0.00 81 1001.5
20240303080805 49 102 3.0 4.0 0.00 0.00 0.00 80 1001.7
20240303080305 49 95 3.0 6.0 0.00 0.00 0.00 80 1001.8
20240303075805 49 88 0.0 4.0 0.00 0.00 0.00 80 1001.8
20240303075306 49 75 0.0 3.0 0.00 0.00 0.00 80 1001.9
20240303074958 49 39 0.0 5.0 0.00 0.00 0.00 79 1002.0
20240303074805 49 39 0.0 5.0 0.00 0.00 0.00 79 1002.0
20240303074503 49 123 0.0 0.0 0.00 0.00 0.00 79 1001.9
20240303074305 49 123 0.0 0.0 0.00 0.00 0.00 79 1001.9
20240303073805 50 78 0.0 6.0 0.00 0.00 0.00 78 1002.0
20240303073539 50 129 0.0 3.0 0.00 0.00 0.00 78 1002.1
20240303073305 50 129 0.0 3.0 0.00 0.00 0.00 78 1002.1
20240303072954 50 112 6.0 7.0 0.00 0.00 0.00 78 1002.1
20240303072805 50 112 6.0 7.0 0.00 0.00 0.00 78 1002.1
20240303072603 51 99 0.0 6.0 0.00 0.00 0.00 77 1002.2
20240303072305 51 99 0.0 6.0 0.00 0.00 0.00 77 1002.2
20240303072021 51 42 0.0 5.0 0.00 0.00 0.00 76 1002.3
20240303071805 51 42 0.0 5.0 0.00 0.00 0.00 76 1002.3
20240303071305 51 111 0.0 0.0 0.00 0.00 0.00 76 1002.4
20240303071032 51 174 3.0 7.0 0.00 0.00 0.00 76 1002.4
20240303070805 51 174 3.0 7.0 0.00 0.00 0.00 76 1002.4
20240303070535 51 133 0.0 6.0 0.00 0.00 0.00 76 1002.4
20240303070305 51 133 0.0 6.0 0.00 0.00 0.00 76 1002.4
20240303065805 51 102 0.0 5.0 0.00 0.00 0.00 76 1002.5
20240303065305 51 91 0.0 6.0 0.00 0.00 0.00 76 1002.4
20240303064950 51 146 0.0 4.0 0.00 0.00 0.00 76 1002.5
20240303064805 51 146 0.0 4.0 0.00 0.00 0.00 76 1002.5
20240303064441 51 104 0.0 6.0 0.00 0.00 0.00 76 1002.4
20240303064305 51 104 0.0 6.0 0.00 0.00 0.00 76 1002.4
20240303064035 51 84 0.0 6.0 0.00 0.00 0.00 75 1002.5
20240303063805 51 84 0.0 6.0 0.00 0.00 0.00 75 1002.5
20240303063305 51 102 0.0 4.0 0.00 0.00 0.00 75 1002.5
20240303062945 52 127 0.0 3.0 0.00 0.00 0.00 74 1002.6
20240303062805 52 127 0.0 3.0 0.00 0.00 0.00 74 1002.6
20240303062522 52 203 3.0 9.0 0.00 0.00 0.00 74 1002.6
20240303062306 52 203 3.0 9.0 0.00 0.00 0.00 74 1002.6
20240303061805 52 108 0.0 3.0 0.00 0.00 0.00 74 1002.6
20240303061305 52 116 0.0 7.0 0.00 0.00 0.00 74 1002.5
20240303061057 52 167 5.0 8.0 0.00 0.00 0.00 74 1002.6
20240303060805 52 167 5.0 8.0 0.00 0.00 0.00 74 1002.6
20240303060305 52 67 1.0 4.0 0.00 0.00 0.00 74 1002.6
20240303055805 52 150 0.0 9.0 0.00 0.00 0.00 74 1002.6
20240303055306 52 133 2.0 9.0 0.00 0.00 0.00 74 1002.6
20240303054805 52 130 0.0 4.0 0.00 0.00 0.00 74 1002.6
20240303054305 52 158 4.0 7.0 0.00 0.00 0.00 75 1002.7
20240303053805 52 91 0.0 0.0 0.00 0.00 0.00 75 1002.8
20240303053305 52 91 0.0 0.0 0.00 0.00 0.00 74 1002.8
20240303052805 52 91 0.0 0.0 0.00 0.00 0.00 74 1002.9
20240303052305 52 91 0.0 0.0 0.00 0.00 0.00 74 1003.0
20240303051805 52 91 0.0 0.0 0.00 0.00 0.00 73 1003.0
20240303051304 52 143 0.0 8.0 0.00 0.00 0.00 73 1003.0
20240303050805 52 126 0.0 0.0 0.00 0.00 0.00 73 1003.2
20240303050306 52 126 0.0 0.0 0.00 0.00 0.00 73 1003.3
20240303045804 52 127 0.0 0.0 0.00 0.00 0.00 72 1003.4
20240303045306 52 102 4.0 8.0 0.00 0.00 0.00 73 1003.5
20240303044804 52 158 0.0 0.0 0.00 0.00 0.00 72 1003.5
20240303044305 52 158 0.0 0.0 0.00 0.00 0.00 72 1003.6
20240303043805 53 158 0.0 0.0 0.00 0.00 0.00 72 1003.6
20240303043305 53 158 0.0 0.0 0.00 0.00 0.00 71 1003.6
20240303042805 53 158 0.0 4.0 0.00 0.00 0.00 71 1003.6
20240303042306 53 149 0.0 4.0 0.00 0.00 0.00 70 1003.7
20240303042034 53 143 0.0 6.0 0.00 0.00 0.00 70 1003.7
20240303041804 53 143 0.0 6.0 0.00 0.00 0.00 70 1003.7
20240303041304 54 170 0.0 0.0 0.00 0.00 0.00 70 1003.8
20240303040805 54 170 0.0 9.0 0.00 0.00 0.00 69 1003.8
20240303040304 54 132 5.0 10.0 0.00 0.00 0.00 69 1003.8
20240303035804 54 191 0.0 0.0 0.00 0.00 0.00 68 1003.9
20240303035306 54 191 0.0 8.0 0.00 0.00 0.00 68 1003.9
20240303035037 54 170 4.0 8.0 0.00 0.00 0.00 68 1004.0
20240303034805 54 170 4.0 8.0 0.00 0.00 0.00 68 1004.0
20240303034304 55 172 0.0 4.0 0.00 0.00 0.00 68 1004.0
20240303033804 55 90 7.0 9.0 0.00 0.00 0.00 67 1004.1
20240303033305 55 210 1.0 7.0 0.00 0.00 0.00 67 1004.1
20240303032805 55 161 0.0 9.0 0.00 0.00 0.00 66 1004.0
20240303032305 55 129 0.0 8.0 0.00 0.00 0.00 66 1004.0
20240303031804 55 185 6.0 12.0 0.00 0.00 0.00 66 1004.0
20240303031304 55 151 6.0 16.0 0.00 0.00 0.00 66 1003.9
20240303030804 55 182 6.0 11.0 0.00 0.00 0.00 66 1003.9
20240303030304 55 167 7.0 10.0 0.00 0.00 0.00 66 1003.7
20240303025805 55 206 4.0 9.0 0.00 0.00 0.00 67 1003.6
20240303025342 55 174 0.0 10.0 0.00 0.00 0.00 67 1003.5
20240303025306 55 174 0.0 10.0 0.00 0.00 0.00 67 1003.5
20240303024805 55 151 0.0 9.0 0.00 0.00 0.00 67 1003.4
20240303024309 55 60 0.0 8.0 0.00 0.00 0.00 68 1003.4
20240303023805 55 133 0.0 0.0 0.00 0.00 0.00 67 1003.4
20240303023304 55 133 3.0 5.0 0.00 0.00 0.00 67 1003.3
20240303022805 55 132 3.0 6.0 0.00 0.00 0.00 67 1003.4
20240303022350 55 156 0.0 8.0 0.00 0.00 0.00 67 1003.4
20240303022306 55 156 0.0 8.0 0.00 0.00 0.00 67 1003.4
20240303021804 55 108 2.0 5.0 0.00 0.00 0.00 67 1003.4
20240303021304 55 85 0.0 0.0 0.00 0.00 0.00 67 1003.4
20240303020804 55 85 0.0 0.0 0.00 0.00 0.00 67 1003.2
20240303020304 55 112 0.0 0.0 0.00 0.00 0.00 67 1003.4
20240303015804 55 112 0.0 0.0 0.00 0.00 0.00 67 1003.3
20240303015306 55 112 0.0 0.0 0.00 0.00 0.00 67 1003.3
20240303014804 56 112 0.0 4.0 0.00 0.00 0.00 66 1003.3
20240303014304 56 99 0.0 1.0 0.00 0.00 0.00 65 1003.3
20240303013804 56 61 2.0 3.0 0.00 0.00 0.00 65 1003.4
20240303013304 56 78 0.0 8.0 0.00 0.00 0.00 65 1003.4
20240303012805 56 84 0.0 5.0 0.00 0.00 0.00 65 1003.5
20240303012305 57 101 0.0 5.0 0.00 0.00 0.00 65 1003.5
20240303011804 57 75 0.0 0.0 0.00 0.00 0.00 65 1003.5
20240303011304 57 119 0.0 2.0 0.00 0.00 0.00 64 1003.6
20240303010805 57 98 0.0 4.0 0.00 0.00 0.00 64 1003.6
20240303010305 57 112 0.0 0.0 0.00 0.00 0.00 63 1003.6
20240303005804 58 112 0.0 0.0 0.00 0.00 0.00 63 1003.6
20240303005305 58 112 0.0 0.0 0.00 0.00 0.00 63 1003.7
20240303004804 59 112 0.0 0.0 0.00 0.00 0.00 62 1003.7
20240303004305 59 112 0.0 0.0 0.00 0.00 0.00 62 1003.7
20240303003804 59 112 0.0 0.0 0.00 0.00 0.00 62 1003.8
20240303003304 59 112 0.0 3.0 0.00 0.00 0.00 61 1003.8
20240303002805 59 154 0.0 0.0 0.00 0.00 0.00 61 1003.9
20240303002306 59 154 0.0 0.0 0.00 0.00 0.00 61 1003.9
20240303001805 59 154 0.0 7.0 0.00 0.00 0.00 61 1003.9
20240303001305 59 136 0.0 0.0 0.00 0.00 0.00 61 1003.9
20240303000804 60 136 0.0 0.0 0.00 0.00 0.00 61 1003.9
20240303000304 60 136 0.0 0.0 0.00 0.00 0.00 60 1004.0
20240302235806 61 136 0.0 0.0 0.00 0.00 0.00 59 1003.9
20240302235305 61 136 0.0 0.0 0.00 0.00 0.00 59 1003.9
20240302234805 62 136 0.0 6.0 0.00 0.00 0.00 58 1003.9
20240302234304 62 151 0.0 8.0 0.00 0.00 0.00 58 1003.8
20240302233804 62 210 0.0 6.0 0.00 0.00 0.00 57 1003.7
20240302233305 63 181 0.0 6.0 0.00 0.00 0.00 57 1003.7
20240302232804 63 158 4.0 7.0 0.00 0.00 0.00 57 1003.7
20240302232306 63 157 0.0 0.0 0.00 0.00 0.00 56 1003.8
20240302231804 63 178 0.0 7.0 0.00 0.00 0.00 56 1003.8
20240302231457 63 102 4.0 11.0 0.00 0.00 0.00 56 1003.9
20240302231304 63 102 4.0 11.0 0.00 0.00 0.00 56 1003.9
20240302230804 63 171 0.0 11.0 0.00 0.00 0.00 56 1004.0
20240302230305 64 127 0.0 5.0 0.00 0.00 0.00 55 1004.0
20240302225804 64 174 3.0 8.0 0.00 0.00 0.00 55 1003.9
20240302225305 64 171 12.0 17.0 0.00 0.00 0.00 54 1003.9
20240302224804 64 174 9.0 13.0 0.00 0.00 0.00 54 1003.9
20240302224305 65 137 10.0 13.0 0.00 0.00 0.00 53 1003.9
20240302223805 65 123 0.0 6.0 0.00 0.00 0.00 52 1003.9
20240302223304 65 163 0.0 10.0 0.00 0.00 0.00 52 1003.9
20240302222811 64 108 0.0 0.0 0.00 0.00 0.00
20240302222804 64 108 0.0 0.0 0.00 0.00 0.00 54 1004.0
20240302222306 64 108 0.0 0.0 0.00 0.00 0.00 54 1004.1
20240302221805 64 108 0.0 0.0 0.00 0.00 0.00 55 1004.1
20240302221304 64 108 0.0 6.0 0.00 0.00 0.00 54 1004.1
20240302220927 64 125 0.0 0.0 0.00 0.00 0.00 55 1004.1
20240302220804 64 125 0.0 0.0 0.00 0.00 0.00 55 1004.1
20240302220304 63 125 0.0 0.0 0.00 0.00 0.00 55 1004.2
20240302215804 63 125 0.0 9.0 0.00 0.00 0.00 54 1004.2
20240302215306 64 154 0.0 0.0 0.00 0.00 0.00 54 1004.5
20240302214805 63 154 0.0 5.0 0.00 0.00 0.00 55 1004.6
20240302214304 63 171 7.0 13.0 0.00 0.00 0.00 54 1004.7
20240302213806 63 68 3.0 10.0 0.00 0.00 0.00 54 1004.8
20240302213304 63 136 0.0 0.0 0.00 0.00 0.00 54 1004.9
20240302212804 63 165 9.0 9.0 0.00 0.00 0.00 54 1005.0
20240302212306 62 149 0.0 8.0 0.00 0.00 0.00 55 1005.1
20240302211804 62 104 0.0 7.0 0.00 0.00 0.00 55 1005.3
20240302211305 61 123 0.0 11.0 0.00 0.00 0.00 56 1005.4
20240302210804 61 180 8.0 10.0 0.00 0.00 0.00 56 1005.5
20240302210304 60 98 0.0 8.0 0.00 0.00 0.00 57 1005.6
20240302205804 60 161 0.0 7.0 0.00 0.00 0.00 57 1005.7
20240302205306 60 119 0.0 11.0 0.00 0.00 0.00 57 1005.8
20240302204804 60 125 0.0 9.0 0.00 0.00 0.00 57 1005.9
20240302204304 60 180 0.0 10.0 0.00 0.00 0.00 58 1005.9
20240302203804 59 147 2.0 13.0 0.00 0.00 0.00 59 1006.1
20240302203304 59 150 0.0 5.0 0.00 0.00 0.00 60 1006.2
20240302202804 58 143 0.0 9.0 0.00 0.00 0.00 60 1006.3
20240302202306 58 126 0.0 12.0 0.00 0.00 0.00 60 1006.3
20240302202032 58 112 0.0 0.0 0.00 0.00 0.00 60 1006.4
20240302201906 58 112 0.0 0.0 0.00 0.00 0.00 60 1006.4
20240302201804 58 112 0.0 0.0 0.00 0.00 0.00 60 1006.4
20240302201305 58 136 5.0 12.0 0.00 0.00 0.00 60 1006.3
20240302200804 57 184 6.0 13.0 0.00 0.00 0.00 61 1006.3
20240302200304 57 163 7.0 9.0 0.00 0.00 0.00 61 1006.4
20240302195804 57 234 0.0 10.0 0.00 0.00 0.00 62 1006.4
20240302195305 57 153 5.0 14.0 0.00 0.00 0.00 62 1006.5
20240302194804 57 136 0.0 10.0 0.00 0.00 0.00 63 1006.5
20240302194337 57 202 3.0 12.0 0.00 0.00 0.00 63 1006.6
20240302194305 57 202 3.0 12.0 0.00 0.00 0.00 63 1006.6
20240302193804 56 149 0.0 8.0 0.00 0.00 0.00 64 1006.7
20240302193304 56 150 0.0 11.0 0.00 0.00 0.00 65 1006.8
20240302192806 56 111 3.0 9.0 0.00 0.00 0.00 65 1006.8
20240302192306 56 104 0.0 9.0 0.00 0.00 0.00 66 1007.0
20240302191804 55 164 5.0 9.0 0.00 0.00 0.00 67 1007.1
20240302191305 55 182 7.0 13.0 0.00 0.00 0.00 66 1007.1
20240302190932 55 157 10.0 15.0 0.00 0.00 0.00 67 1007.4
20240302190804 55 157 10.0 15.0 0.00 0.00 0.00 67 1007.4
20240302190304 55 106 0.0 15.0 0.00 0.00 0.00 68 1007.4
20240302185804 55 187 8.0 15.0 0.00 0.00 0.00 67 1007.5
20240302185306 55 175 9.0 10.0 0.00 0.00 0.00 67 1007.5
20240302184804 54 180 6.0 14.0 0.00 0.00 0.00 69 1007.6
20240302184304 54 160 5.0 15.0 0.00 0.00 0.00 70 1007.7
20240302183804 53 161 0.0 10.0 0.00 0.00 0.00 70 1007.9
20240302183304 53 168 0.0 16.0 0.00 0.00 0.00 71 1007.9
20240302182804 53 133 3.0 13.0 0.00 0.00 0.00 70 1008.1
20240302182305 53 113 0.0 10.0 0.00 0.00 0.00 72 1008.2
20240302181805 53 191 5.0 11.0 0.00 0.00 0.00 71 1008.2
20240302181304 53 146 6.0 10.0 0.00 0.00 0.00 70 1008.2
20240302180804 53 143 0.0 3.0 0.00 0.00 0.00 71 1008.3
20240302180304 53 106 0.0 5.0 0.00 0.00 0.00 71 1008.5
20240302175806 52 144 0.0 10.0 0.00 0.00 0.00 73 1008.5
20240302175306 52 84 0.0 0.0 0.00 0.00 0.00 72 1008.6
20240302174804 52 201 8.0 9.0 0.00 0.00 0.00 72 1008.7
20240302174304 52 135 0.0 5.0 0.00 0.00 0.00 73 1008.7
20240302174211 51 195 2.0 10.0 0.00 0.00 0.00 74 1008.8
20240302173804 51 195 2.0 10.0 0.00 0.00 0.00 74 1008.8
20240302173304 51 142 0.0 0.0 0.00 0.00 0.00 74 1008.9
20240302172804 50 142 0.0 8.0 0.00 0.00 0.00 76 1009.0
20240302172306 50 172 6.0 13.0 0.00 0.00 0.00 75 1009.0
20240302171804 50 137 3.0 14.0 0.00 0.00 0.00 75 1009.1
20240302171304 50 129 4.0 8.0 0.00 0.00 0.00 76 1009.0
20240302170847 49 150 4.0 7.0 0.00 0.00 0.00 77 1009.2
20240302170805 49 150 4.0 7.0 0.00 0.00 0.00 77 1009.2
20240302170305 49 111 0.0 11.0 0.00 0.00 0.00 77 1009.2